PD2SKZ-12 Weather Reports


time (UTC)temp
F
wind
direction
speed
knots
gust
knots
rain 1hr
in
rain 24hr
in
rain mn
in
humidity
%
barometer
mb
20260503053545 58 143 0.9 1.7 0.00 2.60 0.47 96 1011.1
20260503053044 58 142 0.0 2.6 0.00 2.60 0.47 96 1011.1
20260503052545 58 151 0.0 3.5 0.00 2.60 0.47 96 1011.1
20260503052044 58 165 1.7 3.5 0.00 2.60 0.47 96 1011.2
20260503051545 58 157 1.7 2.6 0.00 2.60 0.47 96 1011.2
20260503051045 58 145 0.9 1.7 0.00 2.60 0.47 96 1011.2
20260503050624 58 0.0 0.0 0.00 2.60 0.47 96 1011.2
20260503050105 58 0.0 0.0 0.00 2.60 0.47 96 1011.3
20260503045545 58 0.0 0.0 0.00 2.60 0.47 96 1011.4
20260503045045 58 0.0 0.0 0.00 2.60 0.47 96 1011.4
20260503044544 57 0.0 0.0 0.00 2.60 0.47 96 1011.4
20260503044045 57 0.0 0.0 0.00 2.60 0.47 96 1011.4
20260503043545 57 0.0 0.0 0.00 2.60 0.47 96 1011.4
20260503043045 57 0.0 0.0 0.00 2.60 0.47 96 1011.5
20260503042625 57 0.0 0.0 0.00 2.60 0.47 96 1011.4
20260503042045 57 0.0 0.0 0.00 2.60 0.47 96 1011.5
20260503041545 57 0.0 0.0 0.00 2.60 0.47 96 1011.5
20260503041105 57 0.0 0.0 0.00 2.60 0.47 96 1011.6
20260503040628 57 0.0 0.0 0.00 2.60 0.47 96 1011.5
20260503040045 57 0.0 0.0 0.00 2.60 0.47 96 1011.5
20260503035544 58 0.0 0.0 0.08 2.60 0.47 96 1011.5
20260503035045 58 0.0 0.0 0.08 2.60 0.47 96 1011.4
20260503034545 58 0.0 0.0 0.08 2.60 0.47 96 1011.3
20260503034045 58 0.0 0.0 0.16 2.60 0.47 96 1011.4
20260503033545 58 0.0 0.0 0.31 2.60 0.47 96 1011.5
20260503033045 58 144 0.9 1.7 0.31 2.60 0.47 96 1011.5
20260503032545 58 0.0 1.7 0.31 2.60 0.47 95 1011.6
20260503032045 58 0.0 0.0 0.31 2.60 0.47 95 1011.6
20260503031545 58 145 0.9 1.7 0.31 2.60 0.47 95 1011.6
20260503031015 58 0.0 0.0 0.31 2.60 0.47 95 1011.7
20260503030445 58 0.0 0.9 0.31 2.60 0.47 95 1011.9
20260503030004 58 0.0 0.9 0.31 2.60 0.47 95 1012.1
20260503025445 58 0.0 0.0 0.24 2.52 0.39 95 1012.0
20260503024945 58 132 0.9 0.9 0.24 2.52 0.39 95 1012.0
20260503024505 58 132 0.9 1.7 0.31 2.52 0.39 95 1012.2
20260503023945 58 130 0.9 1.7 0.24 2.44 0.31 94 1012.5
20260503023444 59 130 0.9 1.7 0.16 2.28 0.16 94 1012.5
20260503022945 59 146 1.7 2.6 0.16 2.28 0.16 94 1012.6
20260503022505 58 145 1.7 2.6 0.16 2.28 0.16 94 1012.6
20260503021945 58 122 0.9 2.6 0.16 2.28 0.16 95 1012.6
20260503021445 58 162 2.6 4.3 0.16 2.28 0.16 95 1012.6
20260503020945 58 0.0 0.0 0.16 2.28 0.16 95 1012.6
20260503020445 58 151 0.9 1.7 0.16 2.28 0.16 95 1012.7
20260503015945 58 158 0.9 1.7 0.16 2.28 0.16 95 1012.7
20260503015415 58 0.0 0.0 0.16 2.28 0.16 95 1012.6
20260503014905 58 161 1.7 1.7 0.16 2.28 0.16 94 1012.6
20260503014345 58 135 0.9 1.7 0.08 2.20 0.08 94 1012.5
20260503013845 58 0.0 0.0 0.08 2.20 0.08 94 1012.7
20260503013345 58 0.0 0.0 0.00 2.13 0.00 94 1012.7
20260503012845 58 0.0 1.7 0.00 2.13 0.00 94 1012.7
20260503012345 58 152 0.9 2.6 0.00 2.13 0.00 94 1012.7
20260503011845 58 0.0 0.0 0.00 2.13 0.00 94 1012.7
20260503011344 58 0.0 0.0 0.00 2.13 0.00 94 1012.7
20260503010845 58 0.0 0.0 0.00 2.13 0.00 94 1012.5
20260503010345 58 0.0 0.0 0.00 2.13 0.00 94 1012.5
20260503005845 58 0.0 0.0 0.00 2.13 0.00 94 1012.4
20260503005345 58 0.0 0.0 0.00 2.13 0.00 94 1012.5
20260503004925 58 0.0 0.0 0.00 2.13 0.00 94 1012.5
20260503004345 58 153 0.9 0.9 0.00 2.13 0.00 94 1012.7
20260503003815 58 0.0 0.0 0.00 2.13 0.00 94 1012.7
20260503003245 58 153 0.0 0.9 0.00 2.13 0.00 94 1012.8
20260503002745 58 0.0 0.0 0.00 2.13 0.00 94 1012.8
20260503002245 58 0.0 0.0 0.00 2.13 0.00 94 1012.8
20260503001745 58 153 0.9 1.7 0.00 2.13 0.00 94 1012.8
20260503001245 58 147 0.9 2.6 0.00 2.13 0.00 94 1012.9
20260503000745 58 0.0 0.0 0.00 2.13 0.00 94 1012.8
20260503000245 58 0.0 2.6 0.00 2.13 0.00 94 1012.8
20260502235745 58 0.0 0.0 0.00 2.13 0.00 94 1012.8
20260502235245 58 109 0.9 0.9 0.00 2.13 0.00 94 1012.9
20260502234745 58 0.0 1.7 0.00 2.13 0.00 94 1012.9
20260502234245 58 88 0.9 1.7 0.00 2.13 0.00 94 1012.9
20260502233745 58 0.0 1.7 0.00 2.13 0.00 94 1013.0
20260502233245 58 0.0 0.9 0.00 2.13 0.00 94 1013.2
20260502232745 58 0.0 0.0 0.00 2.13 0.00 94 1013.2
20260502232215 58 0.0 0.9 0.00 2.13 0.00 94 1013.2
20260502231615 58 0.0 0.9 0.00 2.13 0.00 94 1013.3
20260502231045 58 0.0 0.0 0.00 2.13 0.00 94 1013.4
20260502230545 58 0.0 1.7 0.00 2.13 0.00 94 1013.3
20260502230045 58 0.0 1.7 0.00 2.13 0.00 94 1013.3
20260502225545 58 144 0.0 1.7 0.00 2.13 0.00 93 1013.4
20260502225105 58 0.0 0.0 0.00 2.13 0.00 93 1013.4
20260502224545 58 0.0 0.0 0.00 2.13 0.00 93 1013.4
20260502224045 58 313 0.9 2.6 0.00 2.13 0.00 93 1013.5
20260502223545 58 0.0 0.9 0.00 2.13 0.00 93 1013.5
20260502223046 58 74 0.0 2.6 0.08 2.13 0.00 93 1013.5
20260502222515 58 0.0 1.7 0.16 2.13 0.00 93 1013.4
20260502221915 58 236 0.9 2.6 0.24 2.13 0.00 92 1013.3
20260502221505 58 91 1.7 2.6 0.31 2.13 0.00 92 1013.4
20260502220945 58 0.0 1.7 0.47 2.13 0.00 92 1013.5
20260502220445 58 0.0 1.7 0.63 2.13 0.00 92 1013.6
20260502215945 58 56 0.0 2.6 0.71 2.13 2.13 92 1013.6
20260502215446 58 131 0.9 3.5 0.87 2.13 2.13 92 1013.6
20260502214945 58 160 1.7 3.5 1.18 2.13 2.13 92 1013.7
20260502214445 58 156 0.9 3.5 1.81 2.13 2.13 91 1013.7
20260502213945 58 105 1.7 1.7 2.05 2.13 2.13 91 1013.7
20260502213445 58 147 0.9 3.5 1.97 2.05 2.05 90 1013.8
20260502212945 58 77 0.9 1.7 1.97 2.05 2.05 88 1013.8
20260502212445 58 191 0.9 2.6 1.89 1.97 1.97 87 1013.9
20260502211946 58 0.0 0.9 1.81 1.89 1.89 86 1014.0
20260502211505 58 102 0.0 2.6 1.73 1.81 1.81 86 1013.8
20260502210945 59 0.0 0.9 1.57 1.65 1.65 87 1014.2
20260502210445 59 0.0 1.7 1.42 1.50 1.50 86 1014.6
20260502210005 59 145 0.9 1.7 1.34 1.42 1.42 84 1014.9
20260502205445 60 131 1.7 1.7 1.18 1.26 1.26 83 1015.2
20260502204946 60 0.0 1.7 0.87 0.94 0.94 81 1015.4
20260502204415 62 263 2.6 2.6 0.24 0.31 0.31 73 1015.4
20260502203846 62 247 2.6 4.3 0.00 0.08 0.08 61 1015.1
20260502203345 62 0.0 0.0 0.00 0.08 0.08 58 1014.7
20260502202845 62 279 0.9 1.7 0.00 0.08 0.08 58 1014.2
20260502202345 62 0.0 0.0 0.00 0.08 0.08 57 1014.3
20260502201846 62 0.0 1.7 0.00 0.08 0.08 57 1014.2
20260502201345 62 346 0.9 1.7 0.00 0.08 0.08 57 1014.2
20260502200845 62 346 0.9 1.7 0.00 0.08 0.08 58 1014.3
20260502200345 62 318 0.9 2.6 0.00 0.08 0.08 57 1014.3
20260502195846 62 0.0 0.9 0.00 0.08 0.08 57 1014.4
20260502195346 62 289 0.9 2.6 0.00 0.08 0.08 57 1014.4
20260502194905 62 302 0.9 1.7 0.00 0.08 0.08 57 1014.4
20260502194406 62 282 0.9 2.6 0.00 0.08 0.08 57 1014.5
20260502193845 62 0.0 1.7 0.00 0.08 0.08 57 1014.5
20260502193346 62 279 1.7 1.7 0.00 0.08 0.08 57 1014.6
20260502192815 62 285 0.9 1.7 0.00 0.08 0.08 56 1014.7
20260502192245 62 79 0.9 1.7 0.00 0.08 0.08 57 1014.8
20260502191805 62 290 0.9 2.6 0.00 0.08 0.08 58 1014.7
20260502191245 62 0.0 2.6 0.00 0.08 0.08 57 1014.7
20260502190746 62 0.0 0.0 0.00 0.08 0.08 57 1014.7
20260502190245 63 299 0.9 1.7 0.00 0.08 0.08 56 1014.7
20260502185745 63 298 0.9 1.7 0.00 0.08 0.08 56 1014.6
20260502185246 63 310 0.9 1.7 0.00 0.08 0.08 55 1014.6
20260502184805 63 293 1.7 1.7 0.00 0.08 0.08 55 1014.6
20260502184245 63 313 1.7 1.7 0.00 0.08 0.08 54 1014.6
20260502183746 63 319 2.6 3.5 0.00 0.08 0.08 53 1014.6
20260502183245 63 324 3.5 4.3 0.00 0.08 0.08 53 1014.6
20260502182806 63 318 1.7 4.3 0.00 0.08 0.08 54 1014.7
20260502182246 63 325 2.6 2.6 0.00 0.08 0.08 53 1014.6
20260502181747 64 285 2.6 4.3 0.00 0.08 0.08 54 1014.8
20260502181306 64 297 2.6 3.5 0.00 0.08 0.08 55 1014.7
20260502180746 65 306 1.7 2.6 0.00 0.08 0.08 55 1014.7
20260502180245 65 322 3.5 4.3 0.00 0.08 0.08 54 1014.8
20260502170246 73 296 0.9 2.6 0.00 0.08 0.08 42 1015.1
20260502164247 73 293 2.6 3.5 0.00 0.08 0.08 41 1015.6
20260502163746 74 282 0.9 1.7 0.00 0.08 0.08 40 1015.7
20260502163246 74 319 2.6 4.3 0.00 0.08 0.08 39 1015.7
20260502162746 75 277 0.9 1.7 0.00 0.08 0.08 39 1015.8
20260502162247 75 0.0 0.0 0.00 0.08 0.08 39 1015.9
20260502161746 75 277 1.7 2.6 0.00 0.08 0.08 38 1016.0
20260502161246 73 249 0.9 4.3 0.00 0.08 0.08 40 1016.1
20260502160806 73 278 0.9 3.5 0.00 0.08 0.08 40 1016.1
20260502160245 73 284 3.5 4.3 0.00 0.08 0.08 40 1016.1
20260502152246 73 290 2.6 4.3 0.00 0.08 0.08 40 1016.5
20260502151746 74 272 4.3 5.2 0.00 0.08 0.08 39 1016.6
20260502151246 74 286 0.9 2.6 0.00 0.08 0.08 40 1016.6
20260502150747 74 304 2.6 4.3 0.00 0.08 0.08 40 1016.6
20260502150246 74 285 1.7 4.3 0.00 0.08 0.08 40 1016.7
20260502130747 71 298 1.7 6.1 0.00 0.08 0.08 55 1018.0
20260502130246 72 279 0.9 2.6 0.00 0.08 0.08 53 1018.0
20260502123746 70 271 0.9 3.5 0.00 0.08 0.08 58 1018.2
20260502123246 69 304 2.6 6.1 0.00 0.08 0.08 58 1018.2
20260502122746 70 306 1.7 4.3 0.00 0.08 0.08 57 1018.3
20260502122246 71 310 2.6 4.3 0.00 0.08 0.08 56 1018.4
20260502121746 71 320 0.9 3.5 0.00 0.08 0.08 58 1018.4
20260502121246 73 144 0.0 1.7 0.00 0.08 0.08 57 1018.5
20260502120746 72 295 1.7 2.6 0.00 0.08 0.08 60 1018.5
20260502120246 71 285 1.7 5.2 0.00 0.08 0.08 61 1018.5
20260502115809 73 140 0.9 3.5 0.00 0.08 0.08 60 1018.5
20260502115246 71 0.0 1.7 0.00 0.08 0.08 63 1018.5
20260502114746 72 0.0 2.6 0.00 0.08 0.08 61 1018.7
20260502114246 71 278 3.5 4.3 0.00 0.08 0.08 61 1018.6
20260502113806 71 132 0.9 3.5 0.00 0.08 0.08 63 1018.7
20260502113246 71 153 1.7 4.3 0.00 0.08 0.08 63 1018.8
20260502112746 72 237 0.0 1.7 0.00 0.08 0.08 65 1018.7
20260502112246 71 0.0 3.5 0.00 0.08 0.08 67 1018.8
20260502111747 69 309 0.9 4.3 0.00 0.08 0.08 69 1018.9
20260502111246 69 283 2.6 4.3 0.00 0.08 0.08 69 1018.9
20260502110746 70 283 0.9 1.7 0.00 0.08 0.08 69 1018.9
20260502110246 68 89 0.0 4.3 0.00 0.08 0.08 71 1019.0
20260502105746 70 320 4.3 5.2 0.00 0.08 0.08 68 1018.9
20260502105246 70 304 3.5 5.2 0.00 0.08 0.08 69 1018.9
20260502104806 70 161 0.9 1.7 0.00 0.08 0.08 68 1019.0
20260502104246 70 300 0.9 3.5 0.00 0.08 0.08 70 1019.1
20260502103747 69 312 3.5 4.3 0.00 0.08 0.08 70 1019.0
20260502103246 68 270 1.7 4.3 0.00 0.08 0.08 71 1019.1
20260502102746 68 319 2.6 3.5 0.00 0.08 0.08 72 1019.1
20260502102249 68 324 1.7 4.3 0.00 0.08 0.08 73 1019.1
20260502101746 69 294 2.6 3.5 0.00 0.08 0.08 71 1019.1
20260502101246 68 0.0 1.7 0.00 0.08 0.08 74 1019.2
20260502100746 67 320 4.3 6.1 0.00 0.08 0.08 73 1019.2
20260502100246 68 293 2.6 4.3 0.00 0.08 0.08 73 1019.2
20260502091246 67 317 0.9 2.6 0.00 0.08 0.08 78 1019.3
20260502090746 66 0.0 1.7 0.00 0.08 0.08 80 1019.3
20260502090246 66 282 0.0 1.7 0.00 0.08 0.08 80 1019.4
20260502071249 58 0.0 0.0 0.08 0.08 0.08 90 1019.0
20260502070746 58 0.0 0.0 0.08 0.08 0.08 89 1018.9
20260502070247 57 0.0 0.0 0.08 0.08 0.08 89 1018.9
20260502065746 57 0.0 0.0 0.08 0.08 0.08 89 1018.9
20260502065247 57 0.0 0.0 0.08 0.08 0.08 88 1018.8
20260502064746 57 0.0 0.0 0.08 0.08 0.08 88 1018.8
20260502064246 57 0.0 0.0 0.08 0.08 0.08 87 1018.7
20260502063747 57 0.0 0.0 0.00 0.00 0.00 87 1018.8
20260502063247 57 0.0 0.0 0.00 0.00 0.00 85 1019.0
20260502062747 57 0.0 0.0 0.00 0.00 0.00 83 1019.0
20260502062306 57 0.0 0.0 0.00 0.00 0.00 82 1019.0
20260502061716 57 0.0 0.0 0.00 0.00 0.00 80 1019.0
20260502061146 58 0.0 0.0 0.00 0.00 0.00 77 1019.1
20260502060646 58 0.0 0.0 0.00 0.00 0.00 75 1019.1
20260502060147 58 0.0 0.0 0.00 0.00 0.00 73 1019.1
20260502055647 58 0.0 0.0 0.00 0.00 0.00 69 1019.2
20260502055207 58 0.0 0.0 0.00 0.00 0.00 67 1019.1
20260502054646 58 0.0 0.0 0.00 0.00 0.00 66 1019.1
20260502054146 57 0.0 0.0 0.00 0.00 0.00 66 1019.1